Theta_e
330 322 311 308 301 298 295 299 306 310 314 320 322 321 318 321 317 303 337 344 351 353 359 360 362 362 361 360 360 359 358 358 358 359 359 360 361 361 361 361 360 358 354 353 352 352 353 353 352
326 317 308 301 296 293 295 302 304 306 311 315 324 322 320 320 337 337 338 347 351 354 357 358 362 362 361 360 359 359 358 358 358 358 359 359 359 360 360 361 360 357 355 352 352 351 351 352 352
316 311 302 297 292 293 297 303 303 308 311 317 323 330 327 327 341 339 344 349 352 351 353 358 362 362 361 360 359 359 358 358 358 358 359 359 359 358 359 359 358 355 352 352 351 351 350 349 349
308 305 301 295 292 298 300 305 305 307 311 313 326 322 330 340 343 344 349 351 351 350 353 360 361 361 361 360 359 359 359 359 359 358 357 358 358 358 357 357 356 354 350 350 350 351 350 348 347
305 299 294 291 294 298 304 307 307 306 308 312 326 322 325 344 347 348 349 351 350 351 356 357 361 361 361 360 359 359 359 359 359 358 357 358 358 358 357 356 355 352 350 350 350 350 350 351 350
302 297 290 291 294 301 304 305 306 306 309 315 323 322 331 346 344 345 349 349 352 354 357 358 361 361 360 360 359 358 358 358 359 358 358 358 358 358 356 355 354 352 352 351 350 351 352 352 351
297 295 291 292 296 299 302 306 306 306 312 318 328 323 331 340 344 348 349 352 354 355 357 357 357 359 360 359 359 358 357 357 358 358 358 358 358 357 356 355 355 354 353 352 352 352 352 351 351
299 296 292 292 295 297 302 303 306 308 314 329 336 324 324 338 347 348 349 350 352 352 352 352 355 355 354 355 359 359 357 357 357 357 357 356 356 356 356 354 354 354 354 353 352 352 351 350 349
299 291 290 294 296 298 299 300 308 314 325 330 333 333 337 345 345 344 343 344 346 349 350 351 352 352 354 354 356 358 358 358 357 357 357 354 351 351 352 353 353 354 354 354 353 351 350 350 349
296 290 292 299 300 299 299 302 304 311 319 327 332 340 343 343 342 339 339 339 341 341 345 348 350 348 350 355 354 353 354 354 353 353 352 350 348 346 349 351 353 354 354 355 353 352 351 351 343
294 292 297 301 303 303 300 302 306 306 307 317 328 333 338 339 338 337 338 339 339 342 345 346 347 348 350 352 351 352 353 353 351 351 350 348 347 345 346 346 346 347 350 347 347 345 344 342 340
293 297 300 302 304 303 300 305 305 305 307 321 332 335 335 336 336 337 338 339 340 342 344 345 346 346 346 349 349 349 350 350 349 349 348 346 344 342 340 341 341 340 340 340 342 342 342 340 339
294 297 301 303 302 303 304 301 305 306 311 319 332 332 332 332 333 337 339 341 341 340 342 342 343 344 344 346 348 348 348 348 348 347 347 347 343 340 338 337 338 338 339 339 339 340 341 339 338
297 297 300 300 301 302 302 302 306 308 312 313 329 329 329 331 333 334 337 338 339 340 339 340 340 341 342 341 343 344 346 346 347 346 346 346 344 341 337 335 335 337 339 341 340 340 339 339 338
296 293 297 298 299 299 303 300 303 310 311 310 311 314 320 324 330 333 335 336 338 339 341 339 339 340 338 338 340 341 341 343 343 344 343 343 343 340 337 335 335 336 339 340 340 340 340 338 339
293 291 291 298 299 300 301 295 304 310 309 308 310 311 315 316 323 329 333 335 337 337 338 339 342 338 335 333 337 343 341 340 340 340 341 341 341 341 339 335 334 336 339 340 340 340 339 338 339
289 285 287 293 298 300 298 294 302 310 309 308 308 310 311 311 311 316 333 335 337 336 338 338 340 338 334 337 338 338 344 340 340 341 342 342 342 343 341 339 340 340 340 340 341 343 341 341 342
284 286 287 291 294 297 298 299 305 308 309 309 309 310 309 309 311 321 333 337 337 337 336 335 335 337 332 334 338 343 347 348 344 342 343 343 343 344 342 342 342 344 344 344 343 343 341 342 342
289 288 288 291 296 296 297 299 304 306 305 305 306 307 309 309 310 330 334 336 336 336 334 334 333 332 332 332 333 340 345 347 347 348 347 345 344 344 342 342 341 340 341 343 342 341 340 341 340
289 287 286 291 297 297 297 298 304 306 305 305 306 306 307 308 310 325 330 331 332 333 332 332 332 331 331 330 331 334 339 344 346 347 347 349 349 349 346 342 342 341 341 342 341 338 339 339 337
286 286 287 289 296 299 296 294 299 304 306 306 306 306 307 307 310 317 323 326 328 329 329 329 328 327 328 328 330 336 341 340 337 337 337 338 338 341 340 341 341 341 341 342 341 337 336 336 336
284 291 291 292 290 286 296 284 293 300 303 305 305 303 305 307 310 315 318 319 321 323 325 327 328 330 331 336 334 334 330 328 328 328 328 327 328 330 335 334 333 333 335 337 336 338 337 335 334
288 293 291 291 288 287 289 286 289 295 299 302 305 303 304 306 307 314 318 323 327 327 325 324 324 325 326 328 328 326 324 324 325 323 322 323 323 324 326 327 329 331 333 334 337 338 334 333 333
294 291 290 287 285 280 285 288 287 290 295 300 304 306 302 302 307 321 326 326 322 322 321 320 320 319 322 323 323 321 318 317 316 316 316 318 320 320 321 322 323 324 325 327 330 332 332 333 334
290 284 278 277 278 278 287 286 288 295 297 299 300 302 300 306 319 324 324 322 319 318 317 317 317 316 317 318 318 317 315 314 314 314 314 314 315 316 316 318 318 320 321 322 323 325 326 327 327
286 285 279 276 277 280 288 283 288 298 304 305 303 299 303 314 322 324 324 320 319 317 316 315 315 313 313 314 314 314 313 313 313 313 313 313 314 315 316 316 316 316 317 318 318 319 320 321 323
286 283 288 283 284 281 283 288 295 300 302 304 303 299 307 318 323 323 319 319 317 315 314 314 312 311 311 311 311 312 312 311 311 312 312 311 313 315 314 314 314 314 315 315 314 314 315 317 319
290 291 284 283 278 277 282 287 286 295 298 302 302 299 309 320 322 320 319 318 317 316 314 313 312 311 310 310 310 310 311 311 310 310 310 310 310 311 310 311 312 312 313 313 312 311 313 314 313
288 286 286 286 283 279 278 283 294 297 298 300 300 301 310 317 319 318 316 315 314 313 312 312 310 310 309 309 309 309 309 309 309 308 309 309 309 309 310 310 311 311 310 309 309 310 311 309 310
290 289 288 282 283 285 284 284 301 300 302 302 300 305 308 311 311 311 311 312 312 311 311 310 310 309 308 309 308 308 308 308 307 307 307 307 307 308 308 308 308 307 307 307 307 307 307 307 306
Wind_Speed
6 8 0 4 3 5 3 5 3 3 6 4 1 5 6 3 3 3 2 4 14 14 11 12 15 13 15 18 18 18 17 15 14 15 15 15 14 14 13 12 10 10 9 8 8 7 8 9 9
4 5 4 2 5 3 5 3 5 1 4 11 3 1 4 3 3 5 7 4 15 11 8 10 15 14 15 18 18 17 17 15 15 14 14 12 12 12 12 10 10 10 8 8 7 6 6 7 7
4 2 4 5 3 6 4 4 1 6 8 5 3 2 4 3 4 7 7 13 12 9 6 10 14 15 16 17 17 16 15 14 14 14 13 12 11 10 9 8 8 8 7 7 6 6 4 4 4
2 4 4 5 6 7 5 5 2 4 6 4 2 1 5 2 3 7 15 16 15 9 7 12 12 13 16 17 16 15 15 14 13 13 12 10 10 8 7 6 6 6 5 5 5 4 3 2 1
3 3 3 3 5 7 2 3 4 5 4 3 4 3 4 7 10 14 17 15 14 11 8 7 11 12 13 16 16 14 13 12 11 12 12 11 9 7 7 5 4 4 4 4 4 2 1 2 3
2 3 2 5 4 5 5 3 2 2 5 6 6 6 4 4 9 10 15 14 11 13 10 8 10 11 11 13 13 14 13 12 11 11 10 9 9 7 6 5 3 3 3 3 3 3 3 4 5
6 4 5 4 6 2 4 2 4 4 2 3 2 5 2 6 9 13 14 14 11 10 10 8 6 10 11 10 10 11 11 10 10 10 9 8 8 7 6 5 5 5 4 4 4 4 4 5 6
5 4 5 4 6 5 2 5 3 3 0 2 2 6 5 6 12 14 13 13 12 8 7 7 6 6 6 5 9 10 9 9 8 8 8 8 8 7 6 6 6 6 6 6 6 6 5 6 8
4 4 4 6 6 4 1 2 2 2 4 5 3 2 8 14 13 14 13 9 9 9 8 7 9 8 8 6 6 8 10 9 8 7 7 5 3 4 5 6 8 8 7 8 7 7 6 8 8
5 5 9 5 4 2 2 1 2 3 3 6 11 12 13 13 11 14 12 11 9 11 9 9 9 7 7 8 7 6 6 4 5 5 6 4 3 4 5 7 10 9 9 9 9 8 8 8 3
6 7 5 4 4 1 3 3 3 5 1 5 13 16 11 11 11 13 8 8 7 9 8 11 10 9 7 6 5 4 3 5 4 6 6 6 4 3 2 2 2 2 6 3 4 4 3 4 4
5 5 5 4 3 4 4 5 2 1 1 6 8 16 10 9 7 12 10 10 11 11 9 9 9 11 8 4 4 6 7 7 6 6 6 4 3 3 2 2 3 3 3 4 4 4 5 5 6
3 3 4 3 3 4 3 3 2 2 3 5 13 9 11 11 8 5 5 5 10 13 11 11 9 9 9 9 6 6 8 7 8 6 7 5 4 4 4 4 3 4 3 4 4 4 5 5 5
6 4 2 1 0 2 2 2 2 4 1 7 11 11 10 12 12 6 6 7 8 6 9 9 8 9 7 7 7 6 5 7 6 4 5 7 5 4 3 4 5 5 4 4 4 5 4 5 3
3 3 4 4 3 4 6 2 5 5 5 7 6 4 8 9 9 13 10 8 9 6 6 9 10 6 4 5 5 4 2 1 2 2 4 3 5 4 5 4 4 6 3 4 3 5 3 4 3
6 2 8 5 9 4 5 2 6 5 9 7 6 1 3 3 9 7 9 8 7 6 10 6 5 5 3 3 2 1 2 1 4 4 4 8 7 7 4 5 5 4 2 3 4 4 4 4 5
6 6 4 1 9 4 4 4 8 7 6 8 8 6 6 7 6 7 8 11 12 9 9 7 6 5 5 4 2 2 4 4 4 4 2 4 6 6 5 6 6 4 4 4 4 4 4 4 5
12 13 5 8 6 3 4 4 4 6 7 8 7 7 7 7 11 2 7 7 6 6 4 1 3 5 5 2 1 1 2 2 1 3 4 5 5 5 7 6 5 3 2 4 4 6 3 4 3
8 10 6 4 2 5 6 5 5 7 2 4 7 5 6 7 6 3 4 3 5 6 7 6 5 3 2 1 2 2 2 2 2 4 6 6 7 7 6 6 4 3 5 7 5 3 4 4 2
5 8 5 1 5 4 5 6 7 8 6 8 8 8 8 5 6 3 4 4 4 3 4 2 1 4 1 2 2 0 0 1 2 4 4 4 5 4 4 5 5 5 5 8 5 4 4 3 4
3 8 6 5 4 3 6 4 4 5 4 7 7 6 5 9 9 6 5 4 3 5 3 3 3 3 2 4 1 1 1 4 5 6 5 7 9 8 7 6 3 3 4 6 3 1 4 5 2
4 5 5 8 6 5 4 5 5 6 8 6 7 8 8 9 5 5 6 4 5 1 2 3 5 5 5 4 5 7 5 5 3 3 4 8 12 12 11 8 6 3 3 4 2 3 6 4 6
5 6 7 3 4 4 1 3 7 3 7 9 8 10 10 9 8 9 6 6 4 6 7 8 8 8 7 11 10 8 10 5 2 3 6 7 9 11 11 10 9 8 5 6 6 6 4 3 4
6 6 7 6 4 1 6 6 5 5 7 5 8 6 8 10 8 8 7 8 7 6 8 8 11 8 9 12 11 13 11 6 5 5 6 4 4 5 7 7 6 6 6 7 6 5 5 4 4
6 7 3 1 0 6 4 4 8 6 3 5 8 1 9 6 9 13 14 11 9 8 6 7 12 8 8 11 10 10 9 8 8 5 4 5 4 3 5 5 6 4 4 5 5 5 5 5 4
7 9 7 5 5 2 4 6 7 2 2 4 5 6 9 11 13 14 14 12 13 11 7 8 11 9 8 8 8 6 8 5 4 5 4 3 2 2 3 5 5 5 5 5 5 3 3 4 4
4 5 8 7 4 4 3 6 5 4 5 8 9 4 10 14 15 15 10 12 11 9 9 11 9 7 7 8 7 6 6 7 5 5 3 3 2 1 4 4 4 5 5 5 4 3 4 4 4
10 7 5 4 4 3 4 3 6 3 6 8 8 7 5 10 14 12 12 12 10 9 7 6 7 9 7 7 6 6 6 6 5 3 3 3 3 4 6 6 6 6 6 7 7 5 5 5 4
3 3 6 6 5 6 1 7 6 6 3 7 10 6 7 10 12 13 7 6 6 6 6 6 6 7 6 5 5 6 5 4 4 3 2 3 4 5 5 5 5 5 5 6 5 5 5 6 5
8 10 7 7 5 0 4 8 2 5 6 6 5 7 8 8 6 8 9 7 6 5 5 5 4 4 4 4 5 6 5 3 3 4 4 4 4 4 4 5 5 5 6 5 6 6 5 5 6
Wind_Direction
315 306 72 32 58 69 250 254 253 304 354 309 121 157 187 116 132 212 339 141 125 139 143 141 134 135 126 118 117 116 113 113 112 114 115 116 120 123 122 122 121 120 115 115 118 123 121 114 113
327 325 42 66 99 118 251 257 204 53 267 286 203 251 108 81 93 93 107 106 129 125 127 129 130 132 125 118 118 117 118 121 121 117 114 113 116 119 120 120 123 125 126 127 126 124 124 119 123
301 44 89 105 126 187 180 231 241 299 289 271 319 81 118 103 74 144 124 111 94 93 106 134 136 136 128 120 119 119 120 121 120 120 119 119 117 116 117 117 119 127 136 135 128 122 126 129 134
346 12 38 105 207 259 183 160 311 296 304 229 181 271 97 53 134 135 117 114 108 100 106 133 136 136 129 126 123 122 123 125 126 127 126 125 124 118 112 110 116 132 142 134 132 135 139 146 174
45 64 108 142 215 270 202 279 281 327 271 272 128 302 14 44 62 115 116 115 119 111 115 116 128 128 131 130 128 127 127 127 131 135 139 141 137 129 125 126 133 150 149 149 157 165 204 263 291
102 108 96 198 214 254 299 245 271 285 316 305 106 104 15 36 79 95 101 105 118 123 119 117 121 120 126 129 132 132 134 135 139 141 148 155 152 152 147 153 165 182 176 186 192 216 246 275 297
152 121 188 205 190 239 242 147 160 264 251 131 335 81 124 68 92 96 101 103 101 108 121 108 115 125 119 122 125 130 136 139 149 149 155 161 159 165 175 185 194 204 207 213 224 236 261 279 290
126 112 160 228 178 205 237 331 228 231 125 12 357 142 183 128 105 99 92 105 115 114 105 110 102 99 101 111 130 138 144 146 160 161 166 168 172 183 201 209 223 230 228 229 230 237 250 269 280
126 86 207 188 155 205 47 67 246 54 79 55 36 82 128 130 123 104 107 96 115 123 126 136 147 147 144 138 153 140 152 164 169 169 182 185 182 200 210 229 227 241 246 248 247 244 250 261 271
137 151 208 201 195 138 50 212 296 100 123 89 85 92 124 137 135 130 141 145 146 154 152 159 158 157 155 157 155 154 164 169 175 176 183 177 211 223 208 227 241 243 250 253 258 259 252 261 264
168 186 189 249 225 16 49 359 318 104 120 201 161 145 145 142 144 119 134 150 168 158 160 167 163 168 172 162 164 152 155 184 190 189 186 183 183 224 243 252 279 278 260 265 270 279 270 268 267
143 214 167 240 53 21 70 305 17 80 55 95 144 140 127 124 131 139 152 160 161 169 172 181 174 163 170 162 176 173 181 188 194 202 183 182 201 192 220 241 242 241 223 253 243 251 250 249 264
147 186 170 240 44 349 79 318 199 50 15 93 135 124 124 130 139 138 143 156 168 179 182 185 179 180 174 168 185 194 195 191 201 188 188 183 185 197 199 226 223 242 228 238 243 244 257 260 258
189 190 218 200 78 6 64 313 42 236 21 72 150 154 159 159 163 149 166 164 178 173 182 171 192 203 185 194 177 205 218 195 199 191 200 186 195 200 205 227 238 246 232 247 253 254 252 257 250
93 165 314 199 205 225 155 153 230 190 152 122 115 151 157 169 177 188 183 181 178 195 180 201 181 215 189 208 198 208 233 212 216 185 152 199 217 220 196 224 241 240 222 250 257 267 261 266 254
138 99 212 207 146 243 113 214 241 203 146 142 126 165 294 209 187 193 196 194 199 181 196 185 178 175 104 50 24 2 62 116 197 201 200 187 196 205 201 226 235 236 195 226 236 242 257 256 256
193 192 201 130 177 133 152 210 215 193 207 151 153 187 214 257 278 223 201 197 199 207 199 182 170 155 119 103 80 168 161 200 229 205 189 208 222 207 204 230 233 205 211 224 241 253 209 250 263
181 188 172 179 186 95 136 205 135 192 179 175 158 175 201 238 253 247 202 186 184 194 244 162 148 152 133 113 38 116 196 219 194 222 202 215 224 223 215 237 242 205 233 246 235 242 236 234 243
121 147 114 158 170 122 180 195 185 204 167 198 166 190 216 245 281 133 189 195 182 198 196 182 183 192 105 28 105 137 118 196 220 228 198 223 220 213 203 233 240 231 241 256 248 263 249 260 237
112 145 171 56 189 149 137 215 249 165 194 191 203 196 204 223 273 256 187 201 245 268 247 215 299 42 94 152 167 123 3 235 250 25 17 348 317 292 239 235 233 213 244 246 238 225 278 246 167
74 128 154 139 142 60 115 309 248 262 199 177 202 207 193 201 207 239 220 238 283 272 341 14 20 5 340 286 323 337 92 47 35 25 4 12 21 30 34 35 342 312 256 279 328 264 245 281 213
136 190 139 128 106 194 156 252 245 242 258 226 201 200 208 205 194 193 176 188 214 292 76 68 63 48 32 32 82 67 70 80 41 35 19 36 38 37 31 25 18 356 319 307 273 251 252 196 256
193 168 163 143 122 121 143 127 263 209 245 256 256 193 209 209 184 185 176 135 100 98 100 98 90 72 59 66 76 81 78 76 75 58 52 36 37 37 32 32 25 19 354 336 321 319 271 251 262
158 111 46 54 96 212 214 141 270 194 198 231 242 236 202 176 201 139 116 107 92 85 97 98 96 76 83 90 86 88 88 82 69 50 56 35 36 36 32 28 23 20 20 10 358 349 344 321 299
124 91 60 20 214 215 169 113 231 258 216 243 271 241 194 176 165 149 141 136 125 110 99 101 106 101 100 96 99 106 111 105 102 92 79 52 27 16 12 21 20 6 356 5 7 20 15 359 356
162 143 150 157 139 205 164 227 249 217 164 292 272 247 174 171 167 164 151 146 139 134 129 124 120 115 104 112 113 113 123 119 102 94 84 88 70 19 358 10 10 2 360 4 6 3 351 351 354
178 137 188 97 22 72 227 309 319 350 332 359 329 215 182 177 167 158 144 144 140 138 150 148 134 135 145 132 132 126 120 115 119 127 134 113 101 0 10 8 359 349 347 348 350 346 339 337 340
151 165 91 9 112 175 277 258 236 312 323 322 309 246 187 162 152 155 157 156 148 155 145 143 142 157 160 157 146 145 141 125 121 103 73 35 9 11 3 0 359 351 352 353 352 341 328 332 330
84 120 61 113 127 163 164 267 215 207 258 278 283 215 169 166 164 144 143 135 123 120 141 152 157 156 164 159 129 121 123 125 120 96 62 21 3 359 11 4 357 6 4 355 345 334 333 341 333
158 166 138 123 220 2 149 263 224 231 269 255 221 170 141 139 136 132 133 136 131 136 147 162 159 145 135 137 123 117 124 119 84 57 29 14 18 18 24 16 360 351 347 341 331 316 322 329 325